When you browse on this site, cookies collect data to enhance your experience and personalize the content and advertising you see.
Visit our Privacy Policy to learn more. By continuing to use the site, you agree to this use of cookies and data.
  • In Schweiz
  • Länderverzeichnis
  • Für 7 Tage
  • Wassertemperatur
  • Wetterkarte
  • Widgets
  • user-avatar
    Anmelden

    Stündliche Wetter Kusty

    Heute, 21 August, Mittwoch

    Zeit Temperatur Niederschläge Wind Luftdruck Luftfeuchtigkeit
    00:00 +18°C° 0 mm 0 m/S 748 mmHg 75%
    01:00 +18°C° 0 mm 0 m/S 749 mmHg 76%
    02:00 +18°C° 0 mm 0 m/S 749 mmHg 77%
    03:00 +17°C° 0 mm 0 m/S 749 mmHg 79%
    04:00 +17°C° 0 mm 0 m/S 749 mmHg 79%
    05:00 +19°C° 0 mm 1 m/S 749 mmHg 80%
    06:00 +19°C° 0 mm 1 m/S 749 mmHg 81%
    07:00 +21°C° 0 mm 1 m/S 749 mmHg 77%
    08:00 +22°C° 0 mm 1 m/S 750 mmHg 72%
    09:00 +24°C° 0 mm 1 m/S 750 mmHg 68%
    10:00 +25°C° 0 mm 1 m/S 750 mmHg 65%
    11:00 +26°C° 0 mm 1 m/S 750 mmHg 62%
    12:00 +27°C° 0 mm 1 m/S 750 mmHg 59%
    13:00 +27°C° 0 mm 1 m/S 749 mmHg 57%
    14:00 +28°C° 0 mm 1 m/S 749 mmHg 55%
    15:00 +28°C° 0 mm 1 m/S 749 mmHg 54%
    16:00 +28°C° 0 mm 1 m/S 749 mmHg 57%
    17:00 +27°C° 0 mm 1 m/S 749 mmHg 61%
    18:00 +27°C° 0 mm 1 m/S 748 mmHg 65%
    19:00 +26°C° 0 mm 2 m/S 748 mmHg 68%
    20:00 +24°C° 0 mm 2 m/S 748 mmHg 72%
    21:00 +23°C° 0 mm 2 m/S 748 mmHg 75%
    22:00 +21°C° 0 mm 2 m/S 748 mmHg 77%
    23:00 +21°C° 0 mm 2 m/S 748 mmHg 79%

    Morgen, 22 August, Donnerstag

    Zeit Temperatur Niederschläge Wind Luftdruck Luftfeuchtigkeit
    00:00 +20°C° 0 mm 2 m/S 748 mmHg 81%
    01:00 +20°C° 0 mm 2 m/S 748 mmHg 82%
    02:00 +21°C° 0 mm 1 m/S 748 mmHg 83%
    03:00 +20°C° 0 mm 1 m/S 748 mmHg 84%
    04:00 +20°C° 0 mm 1 m/S 748 mmHg 85%
    05:00 +20°C° 0 mm 1 m/S 748 mmHg 85%
    06:00 +20°C° 0 mm 1 m/S 747 mmHg 86%
    07:00 +21°C° 0 mm 1 m/S 747 mmHg 81%
    08:00 +23°C° 0 mm 1 m/S 747 mmHg 75%
    09:00 +24°C° 0 mm 1 m/S 748 mmHg 70%
    10:00 +25°C° 0 mm 1 m/S 747 mmHg 66%
    11:00 +27°C° 0 mm 1 m/S 747 mmHg 61%
    12:00 +28°C° 0 mm 1 m/S 747 mmHg 57%
    13:00 +28°C° 0 mm 1 m/S 747 mmHg 55%
    14:00 +29°C° 0 mm 1 m/S 747 mmHg 53%
    15:00 +29°C° 0 mm 1 m/S 747 mmHg 51%
    16:00 +28°C° 0.1 mm 1 m/S 747 mmHg 56%
    17:00 +28°C° 0.1 mm 1 m/S 747 mmHg 60%
    18:00 +27°C° 0.1 mm 2 m/S 747 mmHg 65%
    19:00 +25°C° 0.2 mm 3 m/S 747 mmHg 72%
    20:00 +22°C° 0.2 mm 4 m/S 747 mmHg 80%
    21:00 +21°C° 0.2 mm 6 m/S 748 mmHg 87%
    22:00 +20°C° 0 mm 5 m/S 748 mmHg 88%
    23:00 +19°C° 0 mm 5 m/S 748 mmHg 89%

    übermorgen, 23 August, Freitag

    Zeit Temperatur Niederschläge Wind Luftdruck Luftfeuchtigkeit
    00:00 +17°C° 0 mm 5 m/S 748 mmHg 90%
    01:00 +16°C° 0 mm 5 m/S 749 mmHg 89%
    02:00 +16°C° 0 mm 5 m/S 749 mmHg 89%
    03:00 +15°C° 0 mm 5 m/S 749 mmHg 88%
    04:00 +15°C° 0 mm 5 m/S 749 mmHg 88%
    05:00 +15°C° 0 mm 5 m/S 749 mmHg 89%
    06:00 +14°C° 0 mm 4 m/S 750 mmHg 89%
    07:00 +15°C° 0 mm 5 m/S 750 mmHg 84%
    08:00 +16°C° 0 mm 5 m/S 750 mmHg 80%
    09:00 +17°C° 0 mm 5 m/S 751 mmHg 75%
    10:00 +19°C° 0 mm 5 m/S 751 mmHg 70%
    11:00 +20°C° 0 mm 5 m/S 751 mmHg 65%
    12:00 +22°C° 0 mm 5 m/S 751 mmHg 60%
    13:00 +22°C° 0 mm 5 m/S 750 mmHg 59%
    14:00 +22°C° 0 mm 5 m/S 750 mmHg 58%
    15:00 +23°C° 0 mm 5 m/S 750 mmHg 57%
    16:00 +22°C° 0 mm 4 m/S 750 mmHg 61%
    17:00 +21°C° 0 mm 4 m/S 750 mmHg 65%
    18:00 +21°C° 0 mm 3 m/S 750 mmHg 69%
    19:00 +19°C° 0 mm 3 m/S 750 mmHg 71%
    20:00 +18°C° 0 mm 3 m/S 750 mmHg 74%
    21:00 +17°C° 0 mm 3 m/S 751 mmHg 77%
    22:00 +16°C° 0 mm 3 m/S 751 mmHg 78%
    23:00 +16°C° 0 mm 3 m/S 751 mmHg 78%

    24 August, Samstag

    Zeit Temperatur Niederschläge Wind Luftdruck Luftfeuchtigkeit
    00:00 +14°C° 0 mm 3 m/S 751 mmHg 79%
    01:00 +14°C° 0 mm 3 m/S 751 mmHg 79%
    02:00 +14°C° 0 mm 2 m/S 751 mmHg 80%
    03:00 +14°C° 0 mm 2 m/S 751 mmHg 80%
    04:00 +14°C° 0 mm 2 m/S 751 mmHg 82%
    05:00 +14°C° 0 mm 2 m/S 751 mmHg 83%
    06:00 +13°C° 0 mm 2 m/S 751 mmHg 84%
    07:00 +15°C° 0 mm 2 m/S 751 mmHg 79%
    08:00 +17°C° 0 mm 2 m/S 751 mmHg 73%
    09:00 +19°C° 0 mm 2 m/S 751 mmHg 68%
    10:00 +20°C° 0 mm 2 m/S 751 mmHg 62%
    11:00 +21°C° 0 mm 2 m/S 751 mmHg 56%
    12:00 +23°C° 0 mm 2 m/S 751 mmHg 51%
    13:00 +24°C° 0 mm 2 m/S 751 mmHg 49%
    14:00 +24°C° 0 mm 2 m/S 751 mmHg 47%
    15:00 +24°C° 0 mm 1 m/S 751 mmHg 45%
    16:00 +24°C° 0 mm 1 m/S 750 mmHg 48%
    17:00 +24°C° 0 mm 1 m/S 750 mmHg 52%
    18:00 +23°C° 0 mm 1 m/S 749 mmHg 56%
    19:00 +22°C° 0 mm 1 m/S 749 mmHg 59%
    20:00 +20°C° 0 mm 1 m/S 749 mmHg 62%
    21:00 +18°C° 0 mm 1 m/S 749 mmHg 65%
    22:00 +18°C° 0 mm 1 m/S 749 mmHg 67%
    23:00 +16°C° 0 mm 1 m/S 749 mmHg 69%

    25 August, Sonntag

    Zeit Temperatur Niederschläge Wind Luftdruck Luftfeuchtigkeit
    00:00 +16°C° 0 mm 1 m/S 749 mmHg 71%
    01:00 +16°C° 0 mm 1 m/S 749 mmHg 72%
    02:00 +15°C° 0 mm 1 m/S 749 mmHg 73%
    03:00 +15°C° 0 mm 1 m/S 749 mmHg 74%
    04:00 +15°C° 0 mm 1 m/S 749 mmHg 75%
    05:00 +14°C° 0 mm 1 m/S 748 mmHg 76%
    06:00 +14°C° 0 mm 2 m/S 748 mmHg 77%
    07:00 +16°C° 0 mm 2 m/S 748 mmHg 73%
    08:00 +18°C° 0 mm 2 m/S 748 mmHg 69%
    09:00 +19°C° 0 mm 2 m/S 748 mmHg 65%
    10:00 +20°C° 0 mm 2 m/S 748 mmHg 61%
    11:00 +22°C° 0 mm 3 m/S 748 mmHg 57%
    12:00 +24°C° 0 mm 3 m/S 748 mmHg 54%
    13:00 +24°C° 0 mm 3 m/S 748 mmHg 53%
    14:00 +23°C° 0 mm 4 m/S 748 mmHg 53%
    15:00 +25°C° 0 mm 4 m/S 747 mmHg 52%
    16:00 +24°C° 0 mm 3 m/S 747 mmHg 57%
    17:00 +22°C° 0 mm 3 m/S 747 mmHg 63%
    18:00 +22°C° 0 mm 3 m/S 747 mmHg 68%
    19:00 +20°C° 0 mm 3 m/S 748 mmHg 75%
    20:00 +19°C° 0 mm 3 m/S 748 mmHg 81%
    21:00 +17°C° 0 mm 3 m/S 748 mmHg 88%
    22:00 +16°C° 0 mm 3 m/S 749 mmHg 88%
    23:00 +16°C° 0 mm 3 m/S 749 mmHg 87%

    26 August, Montag

    Zeit Temperatur Niederschläge Wind Luftdruck Luftfeuchtigkeit
    00:00 +14°C° 0 mm 3 m/S 749 mmHg 87%
    01:00 +13°C° 0 mm 3 m/S 750 mmHg 88%
    02:00 +13°C° 0 mm 3 m/S 750 mmHg 89%
    03:00 +12°C° 0 mm 3 m/S 750 mmHg 90%
    04:00 +12°C° 0 mm 3 m/S 750 mmHg 92%
    05:00 +11°C° 0 mm 3 m/S 751 mmHg 93%
    06:00 +11°C° 0 mm 3 m/S 751 mmHg 95%
    07:00 +12°C° 0 mm 3 m/S 751 mmHg 89%
    08:00 +13°C° 0 mm 3 m/S 751 mmHg 83%
    09:00 +15°C° 0 mm 4 m/S 752 mmHg 76%
    10:00 +17°C° 0 mm 4 m/S 752 mmHg 69%
    11:00 +18°C° 0 mm 4 m/S 752 mmHg 62%
    12:00 +19°C° 0 mm 4 m/S 752 mmHg 54%
    13:00 +19°C° 0 mm 3 m/S 752 mmHg 52%
    14:00 +20°C° 0 mm 3 m/S 752 mmHg 50%
    15:00 +20°C° 0 mm 3 m/S 752 mmHg 47%
    16:00 +19°C° 0 mm 2 m/S 752 mmHg 52%
    17:00 +19°C° 0 mm 2 m/S 752 mmHg 56%
    18:00 +18°C° 0 mm 2 m/S 751 mmHg 60%
    19:00 +17°C° 0 mm 2 m/S 751 mmHg 64%
    20:00 +16°C° 0 mm 2 m/S 751 mmHg 68%
    21:00 +14°C° 0 mm 2 m/S 752 mmHg 72%
    22:00 +14°C° 0 mm 2 m/S 752 mmHg 73%
    23:00 +13°C° 0 mm 2 m/S 752 mmHg 75%
    Mehr zeigen